Time,TemperatureF,DewpointF,PressureIn,WindDirection,WindDirectionDegrees,WindSpeedMPH,WindSpeedGustMPH,Humidity,HourlyPrecipIn,Conditions,Clouds,dailyrainin,SoftwareType,DateUTC
2013-08-01 00:11:00,55.3,50.9,29.93,SW,232,0.0,0.0,85,0.00,,---,0.00,VWS V14.01,2013-08-01 07:11:00,
2013-08-01 00:21:00,55.3,51.2,29.93,SW,232,0.0,0.0,86,0.00,,---,0.00,VWS V14.01,2013-08-01 07:21:00,
2013-08-01 00:36:00,55.1,51.0,29.92,SW,232,0.0,0.0,86,0.00,,---,0.00,VWS V14.01,2013-08-01 07:36:00,
2013-08-01 00:41:00,55.3,51.2,29.92,SW,232,0.0,0.0,86,0.00,,---,0.00,VWS V14.01,2013-08-01 07:41:00,
2013-08-01 00:51:00,55.3,51.5,29.92,SW,232,0.0,0.0,87,0.00,,---,0.00,VWS V14.01,2013-08-01 07:51:00,
2013-08-01 01:11:00,55.7,52.2,29.92,SW,232,0.0,0.0,88,0.00,,---,0.00,VWS V14.01,2013-08-01 08:11:00,
2013-08-01 01:21:00,56.0,52.5,29.91,SW,232,0.0,0.0,88,0.00,,---,0.00,VWS V14.01,2013-08-01 08:21:00,
2013-08-01 01:36:00,57.3,54.1,29.91,SW,232,0.0,0.0,89,0.00,,---,0.00,VWS V14.01,2013-08-01 08:36:00,
2013-08-01 02:31:00,58.1,55.2,29.92,SW,232,0.0,0.0,90,0.00,,---,0.00,VWS V14.01,2013-08-01 09:31:00,
2013-08-01 02:41:00,58.1,55.5,29.92,SW,232,0.0,0.0,91,0.00,,---,0.00,VWS V14.01,2013-08-01 09:41:00,
2013-08-01 03:41:00,57.5,55.2,29.91,SW,232,0.0,0.0,92,0.00,,---,0.00,VWS V14.01,2013-08-01 10:41:00,
2013-08-01 04:31:00,57.0,55.0,29.90,SW,232,0.0,0.0,93,0.00,,---,0.00,VWS V14.01,2013-08-01 11:31:00,
2013-08-01 04:41:00,56.9,54.9,29.90,SW,232,0.0,0.0,93,0.00,,---,0.00,VWS V14.01,2013-08-01 11:41:00,
2013-08-01 05:11:00,56.9,54.9,29.90,SW,232,0.0,0.0,93,0.00,,---,0.00,VWS V14.01,2013-08-01 12:11:00,
2013-08-01 05:21:00,56.9,54.9,29.90,SW,232,0.0,0.0,93,0.00,,---,0.00,VWS V14.01,2013-08-01 12:21:00,
2013-08-01 05:31:00,56.9,54.9,29.90,SW,232,0.0,0.0,93,0.00,,---,0.00,VWS V14.01,2013-08-01 12:31:00,
2013-08-01 06:01:00,56.7,55.0,29.91,SW,232,0.0,0.0,94,0.00,,---,0.00,VWS V14.01,2013-08-01 13:01:00,
2013-08-01 06:31:00,56.7,55.0,29.93,SW,232,0.0,0.0,94,0.00,,---,0.00,VWS V14.01,2013-08-01 13:31:00,
2013-08-01 07:06:00,56.7,55.0,29.94,SW,232,0.0,0.0,94,0.00,,---,0.00,VWS V14.01,2013-08-01 14:06:00,
2013-08-01 07:11:00,56.7,55.0,29.94,SW,232,0.0,0.0,94,0.00,,---,0.00,VWS V14.01,2013-08-01 14:11:00,
2013-08-01 07:56:00,57.0,55.6,29.95,SW,232,0.0,0.0,95,0.00,,---,0.00,VWS V14.01,2013-08-01 14:56:00,
2013-08-01 08:06:00,57.2,55.8,29.95,SW,232,0.0,0.0,95,0.00,,---,0.00,VWS V14.01,2013-08-01 15:06:00,
2013-08-01 08:21:00,57.3,55.9,29.95,SW,232,0.0,0.0,95,0.00,,---,0.00,VWS V14.01,2013-08-01 15:21:00,
2013-08-01 08:51:00,57.8,56.4,29.95,SW,232,0.0,0.0,95,0.00,,---,0.00,VWS V14.01,2013-08-01 15:51:00,
2013-08-01 10:01:00,60.2,57.9,29.94,SSW,192,0.0,0.0,92,0.00,,---,0.00,VWS V14.01,2013-08-01 17:01:00,
2013-08-01 10:11:00,61.0,58.0,29.94,SW,219,0.0,0.0,90,0.00,,---,0.00,VWS V14.01,2013-08-01 17:11:00,
2013-08-01 10:16:00,61.5,58.2,29.94,SW,217,0.0,0.0,89,0.00,,---,0.00,VWS V14.01,2013-08-01 17:16:00,
2013-08-01 10:41:00,64.3,59.4,29.94,South,178,0.0,0.0,84,0.00,,---,0.00,VWS V14.01,2013-08-01 17:41:00,
2013-08-01 10:51:00,65.6,59.3,29.94,SSW,199,0.0,0.0,80,0.00,,---,0.00,VWS V14.01,2013-08-01 17:51:00,
2013-08-01 10:56:00,65.8,59.5,29.94,SSW,192,0.0,0.0,80,0.00,,---,0.00,VWS V14.01,2013-08-01 17:56:00,
2013-08-01 11:11:00,67.1,59.3,29.94,SE,145,0.0,0.0,76,0.00,,---,0.00,VWS V14.01,2013-08-01 18:11:00,
2013-08-01 11:31:00,69.6,60.2,29.92,WSW,239,0.0,0.0,72,0.00,,---,0.00,VWS V14.01,2013-08-01 18:31:00,
2013-08-01 12:01:00,72.1,60.5,29.91,SW,215,0.0,2.0,67,0.00,,---,0.00,VWS V14.01,2013-08-01 19:01:00,
2013-08-01 12:11:00,72.8,60.8,29.91,SW,216,0.0,2.0,66,0.00,,---,0.00,VWS V14.01,2013-08-01 19:11:00,
2013-08-01 12:16:00,73.3,60.8,29.91,SW,236,0.0,1.0,65,0.00,,---,0.00,VWS V14.01,2013-08-01 19:16:00,
2013-08-01 12:31:00,74.9,60.6,29.91,SSW,202,0.0,1.0,61,0.00,,---,0.00,VWS V14.01,2013-08-01 19:31:00,
2013-08-01 12:41:00,75.6,60.3,29.91,WSW,239,0.0,5.0,59,0.00,,---,0.00,VWS V14.01,2013-08-01 19:41:00,
2013-08-01 13:06:00,76.8,61.4,29.90,SSW,206,0.0,9.0,59,0.00,,---,0.00,VWS V14.01,2013-08-01 20:06:00,
2013-08-01 13:21:00,77.4,61.0,29.90,West,268,0.0,5.0,57,0.00,,---,0.00,VWS V14.01,2013-08-01 20:21:00,
2013-08-01 13:26:00,77.7,60.8,29.90,SW,222,0.0,9.0,56,0.00,,---,0.00,VWS V14.01,2013-08-01 20:26:00,
2013-08-01 13:36:00,78.3,61.3,29.89,WSW,253,0.0,3.0,56,0.00,,---,0.00,VWS V14.01,2013-08-01 20:36:00,
2013-08-01 13:56:00,78.5,61.5,29.87,South,182,0.0,7.0,56,0.00,,---,0.00,VWS V14.01,2013-08-01 20:56:00,
2013-08-01 14:26:00,79.4,61.3,29.86,SSW,209,0.0,6.0,54,0.00,,---,0.00,VWS V14.01,2013-08-01 21:26:00,
2013-08-01 14:41:00,80.7,61.5,29.85,SSW,199,6.0,9.0,52,0.00,,---,0.00,VWS V14.01,2013-08-01 21:41:00,
2013-08-01 15:11:00,79.9,61.8,29.84,SW,224,3.0,10.0,54,0.00,,---,0.00,VWS V14.01,2013-08-01 22:11:00,
2013-08-01 15:16:00,79.9,61.3,29.84,SW,227,1.0,8.0,53,0.00,,---,0.00,VWS V14.01,2013-08-01 22:16:00,
2013-08-01 15:31:00,79.6,61.5,29.84,West,260,0.0,7.0,54,0.00,,---,0.00,VWS V14.01,2013-08-01 22:31:00,
2013-08-01 15:36:00,79.8,61.7,29.84,SSE,160,0.0,10.0,54,0.00,,---,0.00,VWS V14.01,2013-08-01 22:36:00,
2013-08-01 15:46:00,80.1,62.0,29.83,SW,219,0.0,6.0,54,0.00,,---,0.00,VWS V14.01,2013-08-01 22:46:00,
2013-08-01 16:06:00,78.5,61.0,29.83,SSW,210,0.0,10.0,55,0.00,,---,0.00,VWS V14.01,2013-08-01 23:06:00,
2013-08-01 16:11:00,78.6,60.6,29.83,SSW,199,6.0,9.0,54,0.00,,---,0.00,VWS V14.01,2013-08-01 23:11:00,
2013-08-01 16:21:00,77.9,61.0,29.82,WSW,239,0.0,6.0,56,0.00,,---,0.00,VWS V14.01,2013-08-01 23:21:00,
2013-08-01 16:26:00,78.3,61.3,29.82,SW,220,2.0,7.0,56,0.00,,---,0.00,VWS V14.01,2013-08-01 23:26:00,
2013-08-01 16:41:00,78.1,61.1,29.82,WSW,240,0.0,10.0,56,0.00,,---,0.00,VWS V14.01,2013-08-01 23:41:00,
2013-08-01 17:06:00,77.4,60.5,29.82,West,281,0.0,8.0,56,0.00,,---,0.00,VWS V14.01,2013-08-02 00:06:00,
2013-08-01 17:16:00,78.3,60.3,29.82,SW,232,1.0,7.0,54,0.00,,---,0.00,VWS V14.01,2013-08-02 00:16:00,
2013-08-01 17:21:00,78.5,60.5,29.82,SSW,199,0.0,7.0,54,0.00,,---,0.00,VWS V14.01,2013-08-02 00:21:00,
2013-08-01 17:36:00,79.4,60.8,29.81,SW,223,0.0,5.0,53,0.00,,---,0.00,VWS V14.01,2013-08-02 00:36:00,
2013-08-01 17:46:00,79.2,61.1,29.81,SW,223,0.0,1.0,54,0.00,,---,0.00,VWS V14.01,2013-08-02 00:46:00,
2013-08-01 18:21:00,77.9,60.5,29.81,SSW,210,0.0,1.0,55,0.00,,---,0.00,VWS V14.01,2013-08-02 01:21:00,
2013-08-01 18:31:00,77.4,60.5,29.81,WSW,251,0.0,0.0,56,0.00,,---,0.00,VWS V14.01,2013-08-02 01:31:00,
2013-08-01 18:51:00,75.4,60.1,29.81,WSW,243,0.0,0.0,59,0.00,,---,0.00,VWS V14.01,2013-08-02 01:51:00,
2013-08-01 19:01:00,74.2,59.9,29.82,WSW,243,0.0,0.0,61,0.00,,---,0.00,VWS V14.01,2013-08-02 02:01:00,
2013-08-01 19:21:00,72.3,59.0,29.82,WSW,243,0.0,0.0,63,0.00,,---,0.00,VWS V14.01,2013-08-02 02:21:00,
2013-08-01 19:26:00,71.6,58.8,29.82,WSW,243,0.0,0.0,64,0.00,,---,0.00,VWS V14.01,2013-08-02 02:26:00,
2013-08-01 19:31:00,71.3,58.9,29.82,WSW,243,0.0,0.0,65,0.00,,---,0.00,VWS V14.01,2013-08-02 02:31:00,
2013-08-01 19:46:00,70.3,58.4,29.83,WSW,243,0.0,0.0,66,0.00,,---,0.00,VWS V14.01,2013-08-02 02:46:00,
2013-08-01 20:01:00,69.3,58.3,29.83,WSW,243,0.0,0.0,68,0.00,,---,0.00,VWS V14.01,2013-08-02 03:01:00,
2013-08-01 20:51:00,65.8,56.9,29.83,WSW,243,0.0,0.0,73,0.00,,---,0.00,VWS V14.01,2013-08-02 03:51:00,
2013-08-01 21:01:00,65.3,56.8,29.84,WSW,243,0.0,0.0,74,0.00,,---,0.00,VWS V14.01,2013-08-02 04:01:00,
2013-08-01 21:06:00,65.0,56.9,29.84,WSW,243,0.0,0.0,75,0.00,,---,0.00,VWS V14.01,2013-08-02 04:06:00,
2013-08-01 21:16:00,64.5,56.4,29.84,WSW,243,0.0,0.0,75,0.00,,---,0.00,VWS V14.01,2013-08-02 04:16:00,
2013-08-01 21:26:00,64.2,56.1,29.84,WSW,243,0.0,0.0,75,0.00,,---,0.00,VWS V14.01,2013-08-02 04:26:00,
2013-08-01 21:36:00,63.9,56.2,29.84,WSW,243,0.0,0.0,76,0.00,,---,0.00,VWS V14.01,2013-08-02 04:36:00,
2013-08-01 21:46:00,63.2,55.9,29.85,WSW,243,0.0,0.0,77,0.00,,---,0.00,VWS V14.01,2013-08-02 04:46:00,
2013-08-01 21:51:00,63.1,56.1,29.85,WSW,243,0.0,0.0,78,0.00,,---,0.00,VWS V14.01,2013-08-02 04:51:00,
2013-08-01 21:56:00,62.7,55.8,29.85,WSW,243,0.0,0.0,78,0.00,,---,0.00,VWS V14.01,2013-08-02 04:56:00,
2013-08-01 22:06:00,62.4,55.5,29.85,WSW,243,0.0,0.0,78,0.00,,---,0.00,VWS V14.01,2013-08-02 05:06:00,
2013-08-01 22:11:00,62.3,55.7,29.85,WSW,243,0.0,0.0,79,0.00,,---,0.00,VWS V14.01,2013-08-02 05:11:00,
2013-08-01 22:21:00,62.0,55.4,29.84,WSW,243,0.0,0.0,79,0.00,,---,0.00,VWS V14.01,2013-08-02 05:21:00,
2013-08-01 22:31:00,61.6,55.0,29.84,WSW,243,0.0,0.0,79,0.00,,---,0.00,VWS V14.01,2013-08-02 05:31:00,
2013-08-01 22:41:00,61.3,54.7,29.84,WSW,243,0.0,0.0,79,0.00,,---,0.00,VWS V14.01,2013-08-02 05:41:00,
2013-08-01 22:51:00,61.0,54.8,29.84,WSW,243,0.0,0.0,80,0.00,,---,0.00,VWS V14.01,2013-08-02 05:51:00,
2013-08-01 23:01:00,60.7,54.5,29.85,WSW,243,0.0,0.0,80,0.00,,---,0.00,VWS V14.01,2013-08-02 06:01:00,
2013-08-01 23:06:00,60.5,54.7,29.85,WSW,243,0.0,0.0,81,0.00,,---,0.00,VWS V14.01,2013-08-02 06:06:00,
2013-08-01 23:11:00,60.4,54.5,29.85,WSW,243,0.0,0.0,81,0.00,,---,0.00,VWS V14.01,2013-08-02 06:11:00,
2013-08-01 23:26:00,60.2,54.7,29.84,WSW,243,0.0,0.0,82,0.00,,---,0.00,VWS V14.01,2013-08-02 06:26:00,
2013-08-01 23:31:00,60.1,54.6,29.84,WSW,243,0.0,0.0,82,0.00,,---,0.00,VWS V14.01,2013-08-02 06:31:00,
2013-08-01 23:41:00,59.8,54.6,29.84,WSW,243,0.0,0.0,83,0.00,,---,0.00,VWS V14.01,2013-08-02 06:41:00,
2013-08-01 23:46:00,59.6,54.4,29.84,WSW,243,0.0,0.0,83,0.00,,---,0.00,VWS V14.01,2013-08-02 06:46:00,